Overview Statistics Trail Chart Weather Telemetry Raw packets
 

This is the latest recevied weather packets stored in our database for station/object K6POO-1. If no packets are shown the sender has not sent any weather packets the latest 10 day(s).

<< 109 110 111 112 113 114 >>
Time Temp. Humidity Pressure Rain* Wind** Luminosity Snow
1787856992 22.78° C 62% 1015.7 hPa 0 mm - 785 W/m² -
1787856691 23.33° C 62% 1015.7 hPa 0 mm - 940 W/m² -
1787856391 22.78° C 62% 1015.7 hPa 0 mm - 963 W/m² -
1787856087 23.33° C 62% 1015.5 hPa 0 mm - 688 W/m² -
1787855781 23.33° C 61% 1015.7 hPa 0 mm - 878 W/m² -
1787855477 23.33° C 61% 1015.7 hPa 0 mm - 644 W/m² -
1787855172 22.78° C 63% 1015.5 hPa 0 mm - 1037 W/m² -
1787854867 22.78° C 64% 1015.6 hPa 0 mm - 839 W/m² -
1787854566 22.78° C 64% 1015.4 hPa 0 mm - 573 W/m² -
1787854261 22.78° C 63% 1015.4 hPa 0 mm - 904 W/m² -
1787853956 22.22° C 65% 1015.5 hPa 0 mm - 1021 W/m² -
1787853654 21.67° C 66% 1015.4 hPa 0 mm - 811 W/m² -
1787853349 21.67° C 66% 1015.5 hPa 0 mm - 446 W/m² -
1787853039 22.22° C 66% 1015.3 hPa 0 mm - 482 W/m² -
1787852738 22.22° C 66% 1015.4 hPa 0 mm - 935 W/m² -
1787852432 22.22° C 66% 1015.3 hPa 0 mm - 901 W/m² -
1787852131 21.67° C 68% 1015.2 hPa 0 mm - 692 W/m² -
1787851822 21.67° C 68% 1015.3 hPa 0 mm - 426 W/m² -
1787851521 21.67° C 66% 1014.9 hPa 0 mm - 461 W/m² -
1787851221 22.22° C 66% 1014.7 hPa 0 mm - 514 W/m² -
1787850916 22.22° C 65% 1014.8 hPa 0 mm - 341 W/m² -
1787850618 22.78° C 65% 1014.7 hPa 0 mm - 510 W/m² -
1787850307 22.78° C 65% 1014.7 hPa 0 mm - 682 W/m² -
1787850002 22.78° C 66% 1014.7 hPa 0 mm - 496 W/m² -
1787849696 22.22° C 67% 1014.7 hPa 0 mm - 831 W/m² -

* Rain latest hour (hover to see other rain measurements)
** Current wind speed in m/s (hover to see current wind gust speed)